Time,TemperatureF,DewpointF,PressureIn,WindDirection,WindDirectionDegrees,WindSpeedMPH,WindSpeedGustMPH,Humidity,HourlyPrecipIn,Conditions,Clouds,dailyrainin,SoftwareType,DateUTC
2013-08-07 00:01:00,67.0,40.0,-100.00,East,100,6.0,11.0,38,0.00,,,0.00,,2013-08-07 08:01:00,
2013-08-07 00:11:00,67.0,40.0,-100.00,East,100,6.0,11.0,38,0.00,,,0.00,,2013-08-07 08:11:00,
2013-08-07 00:32:00,67.0,40.0,-100.00,ESE,105,7.0,15.0,38,0.00,,,0.00,,2013-08-07 08:32:00,
2013-08-07 00:44:00,67.0,40.0,-100.00,ESE,105,7.0,15.0,38,0.00,,,0.00,,2013-08-07 08:44:00,
2013-08-07 00:52:00,66.0,40.0,-100.00,East,100,7.0,12.0,39,0.00,,,0.00,,2013-08-07 08:52:00,
2013-08-07 01:01:00,66.0,40.0,-100.00,East,100,7.0,12.0,39,0.00,,,0.00,,2013-08-07 09:01:00,
2013-08-07 01:11:00,66.0,40.0,-100.00,East,100,7.0,12.0,39,0.00,,,0.00,,2013-08-07 09:11:00,
2013-08-07 01:21:00,66.0,40.0,-100.00,East,100,7.0,12.0,39,0.00,,,0.00,,2013-08-07 09:21:00,
2013-08-07 01:43:00,65.0,40.0,-100.00,East,95,6.0,11.0,40,0.00,,,0.00,,2013-08-07 09:43:00,
2013-08-07 02:01:00,65.0,40.0,-100.00,East,95,6.0,12.0,41,0.00,,,0.00,,2013-08-07 10:01:00,
2013-08-07 02:11:00,65.0,40.0,-100.00,East,95,6.0,12.0,41,0.00,,,0.00,,2013-08-07 10:11:00,
2013-08-07 02:21:00,65.0,40.0,-100.00,East,95,6.0,12.0,41,0.00,,,0.00,,2013-08-07 10:21:00,
2013-08-07 02:32:00,64.0,40.0,-100.00,East,100,6.0,11.0,42,0.00,,,0.00,,2013-08-07 10:32:00,
2013-08-07 02:43:00,64.0,40.0,-100.00,East,100,6.0,11.0,42,0.00,,,0.00,,2013-08-07 10:43:00,
2013-08-07 03:01:00,64.0,40.0,-100.00,East,85,7.0,11.0,42,0.00,,,0.00,,2013-08-07 11:01:00,
2013-08-07 03:11:00,64.0,40.0,-100.00,East,85,7.0,11.0,42,0.00,,,0.00,,2013-08-07 11:11:00,
2013-08-07 03:32:00,65.0,40.0,-100.00,East,85,6.0,11.0,41,0.00,,,0.00,,2013-08-07 11:32:00,
2013-08-07 03:43:00,65.0,40.0,-100.00,East,85,6.0,11.0,41,0.00,,,0.00,,2013-08-07 11:43:00,
2013-08-07 04:02:00,65.0,40.0,-100.00,ENE,70,6.0,11.0,41,0.00,,,0.00,,2013-08-07 12:02:00,
2013-08-07 04:11:00,65.0,40.0,-100.00,ENE,70,6.0,11.0,41,0.00,,,0.00,,2013-08-07 12:11:00,
2013-08-07 04:32:00,64.0,40.0,-100.00,East,85,6.0,9.0,42,0.00,,,0.00,,2013-08-07 12:32:00,
2013-08-07 04:43:00,64.0,40.0,-100.00,East,85,6.0,9.0,42,0.00,,,0.00,,2013-08-07 12:43:00,
2013-08-07 05:02:00,63.0,40.0,-100.00,ESE,110,7.0,17.0,43,0.00,,,0.00,,2013-08-07 13:02:00,
2013-08-07 05:10:00,62.0,40.0,-100.00,East,85,7.0,14.0,44,0.00,,,0.00,,2013-08-07 13:10:00,
2013-08-07 05:11:00,63.0,40.0,-100.00,ESE,110,7.0,17.0,43,0.00,,,0.00,,2013-08-07 13:11:00,
2013-08-07 05:22:00,63.0,40.0,-100.00,ESE,110,7.0,17.0,43,0.00,,,0.00,,2013-08-07 13:22:00,
2013-08-07 05:44:00,63.0,40.0,-100.00,ESE,110,9.0,14.0,43,0.00,,,0.00,,2013-08-07 13:44:00,
2013-08-07 05:53:00,62.0,40.0,-100.00,East,85,7.0,14.0,44,0.00,,,0.00,,2013-08-07 13:53:00,
2013-08-07 06:01:00,62.0,40.0,-100.00,East,85,7.0,14.0,44,0.00,,,0.00,,2013-08-07 14:01:00,
2013-08-07 06:43:00,62.0,40.0,-100.00,East,85,7.0,11.0,44,0.00,,,0.00,,2013-08-07 14:43:00,
2013-08-07 07:02:00,62.0,40.0,-100.00,East,85,9.0,14.0,45,0.00,,,0.00,,2013-08-07 15:02:00,
2013-08-07 07:12:00,62.0,40.0,-100.00,East,85,9.0,14.0,45,0.00,,,0.00,,2013-08-07 15:12:00,
2013-08-07 07:33:00,63.0,41.0,-100.00,East,90,7.0,12.0,45,0.00,,,0.00,,2013-08-07 15:33:00,
2013-08-07 07:43:00,63.0,41.0,-100.00,East,90,7.0,12.0,45,0.00,,,0.00,,2013-08-07 15:43:00,
2013-08-07 08:02:00,64.0,41.0,-100.00,East,90,6.0,10.0,44,0.00,,,0.00,,2013-08-07 16:02:00,
2013-08-07 08:11:00,64.0,41.0,-100.00,East,90,6.0,10.0,44,0.00,,,0.00,,2013-08-07 16:11:00,
2013-08-07 08:22:00,64.0,41.0,-100.00,East,90,6.0,10.0,44,0.00,,,0.00,,2013-08-07 16:22:00,
2013-08-07 08:32:00,65.0,42.0,-100.00,East,90,6.0,12.0,44,0.00,,,0.00,,2013-08-07 16:32:00,
2013-08-07 08:43:00,65.0,42.0,-100.00,East,90,6.0,12.0,44,0.00,,,0.00,,2013-08-07 16:43:00,
2013-08-07 08:53:00,65.0,43.0,-100.00,East,95,6.0,11.0,44,0.00,,,0.00,,2013-08-07 16:53:00,
2013-08-07 09:01:00,65.0,43.0,-100.00,East,95,6.0,11.0,44,0.00,,,0.00,,2013-08-07 17:01:00,
2013-08-07 09:11:00,65.0,43.0,-100.00,East,95,6.0,11.0,44,0.00,,,0.00,,2013-08-07 17:11:00,
2013-08-07 09:33:00,66.0,43.0,-100.00,ENE,60,6.0,12.0,44,0.00,,,0.00,,2013-08-07 17:33:00,
2013-08-07 09:43:00,66.0,43.0,-100.00,ENE,60,6.0,12.0,44,0.00,,,0.00,,2013-08-07 17:43:00,
2013-08-07 09:52:00,67.0,44.0,-100.00,East,95,9.0,16.0,44,0.00,,,0.00,,2013-08-07 17:52:00,
2013-08-07 10:02:00,67.0,44.0,-100.00,East,95,9.0,16.0,44,0.00,,,0.00,,2013-08-07 18:02:00,
2013-08-07 10:11:00,67.0,44.0,-100.00,East,95,9.0,16.0,44,0.00,,,0.00,,2013-08-07 18:11:00,
2013-08-07 10:32:00,67.0,45.0,-100.00,ENE,70,7.0,16.0,44,0.00,,,0.00,,2013-08-07 18:32:00,
2013-08-07 10:43:00,67.0,45.0,-100.00,ENE,70,7.0,16.0,44,0.00,,,0.00,,2013-08-07 18:43:00,
2013-08-07 11:01:00,68.0,44.0,-100.00,ESE,110,11.0,19.0,42,0.00,,,0.00,,2013-08-07 19:01:00,
2013-08-07 11:11:00,68.0,44.0,-100.00,ESE,110,11.0,19.0,42,0.00,,,0.00,,2013-08-07 19:11:00,
2013-08-07 11:22:00,68.0,44.0,-100.00,ESE,110,11.0,19.0,42,0.00,,,0.00,,2013-08-07 19:22:00,
2013-08-07 11:44:00,69.0,45.0,-100.00,ESE,110,9.0,17.0,42,0.00,,,0.00,,2013-08-07 19:44:00,
2013-08-07 12:02:00,70.0,45.0,-100.00,ENE,70,7.0,15.0,41,0.00,,,0.00,,2013-08-07 20:02:00,
2013-08-07 12:11:00,70.0,45.0,-100.00,ENE,70,7.0,15.0,41,0.00,,,0.00,,2013-08-07 20:11:00,
2013-08-07 12:22:00,70.0,45.0,-100.00,ENE,70,7.0,15.0,41,0.00,,,0.00,,2013-08-07 20:22:00,
2013-08-07 12:43:00,71.0,45.0,-100.00,East,85,9.0,14.0,40,0.00,,,0.00,,2013-08-07 20:43:00,
2013-08-07 13:01:00,73.0,46.0,-100.00,East,100,8.0,16.0,39,0.00,,,0.00,,2013-08-07 21:01:00,
2013-08-07 13:11:00,73.0,46.0,-100.00,East,100,8.0,16.0,39,0.00,,,0.00,,2013-08-07 21:11:00,
2013-08-07 13:22:00,73.0,46.0,-100.00,East,100,8.0,16.0,39,0.00,,,0.00,,2013-08-07 21:22:00,
2013-08-07 13:43:00,73.0,46.0,-100.00,ESE,115,8.0,16.0,38,0.00,,,0.00,,2013-08-07 21:43:00,
2013-08-07 14:01:00,75.0,47.0,-100.00,SE,125,7.0,20.0,36,0.00,,,0.00,,2013-08-07 22:01:00,
2013-08-07 14:12:00,75.0,47.0,-100.00,SE,125,7.0,20.0,36,0.00,,,0.00,,2013-08-07 22:12:00,
2013-08-07 14:32:00,75.0,46.0,-100.00,SE,130,9.0,19.0,36,0.00,,,0.00,,2013-08-07 22:32:00,
2013-08-07 14:43:00,75.0,46.0,-100.00,SE,130,9.0,19.0,36,0.00,,,0.00,,2013-08-07 22:43:00,
2013-08-07 15:01:00,76.0,45.0,-100.00,SE,125,11.0,21.0,34,0.00,,,0.00,,2013-08-07 23:01:00,
2013-08-07 15:11:00,76.0,45.0,-100.00,SE,125,11.0,21.0,34,0.00,,,0.00,,2013-08-07 23:11:00,
2013-08-07 15:22:00,76.0,45.0,-100.00,SE,125,11.0,21.0,34,0.00,,,0.00,,2013-08-07 23:22:00,
2013-08-07 15:43:00,75.0,44.0,-100.00,ESE,120,7.0,22.0,34,0.00,,,0.00,,2013-08-07 23:43:00,
2013-08-07 15:52:00,76.0,45.0,-100.00,South,170,7.0,16.0,34,0.00,,,0.00,,2013-08-07 23:52:00,
2013-08-07 16:01:00,76.0,45.0,-100.00,South,170,7.0,16.0,34,0.00,,,0.00,,2013-08-08 00:01:00,
2013-08-07 16:11:00,76.0,45.0,-100.00,South,170,7.0,16.0,34,0.00,,,0.00,,2013-08-08 00:11:00,
2013-08-07 16:22:00,76.0,45.0,-100.00,South,170,7.0,16.0,34,0.00,,,0.00,,2013-08-08 00:22:00,
2013-08-07 16:42:00,76.0,45.0,-100.00,NE,55,7.0,15.0,33,0.00,,,0.00,,2013-08-08 00:42:00,
2013-08-07 17:02:00,77.0,45.0,-100.00,East,100,7.0,14.0,32,0.00,,,0.00,,2013-08-08 01:02:00,
2013-08-07 17:11:00,77.0,45.0,-100.00,East,100,7.0,14.0,32,0.00,,,0.00,,2013-08-08 01:11:00,
2013-08-07 17:32:00,75.0,43.0,-100.00,East,100,7.0,18.0,32,0.00,,,0.00,,2013-08-08 01:32:00,
2013-08-07 17:43:00,75.0,43.0,-100.00,East,100,7.0,18.0,32,0.00,,,0.00,,2013-08-08 01:43:00,
2013-08-07 17:52:00,74.0,44.0,-100.00,ESE,110,7.0,12.0,34,0.00,,,0.00,,2013-08-08 01:52:00,
2013-08-07 18:02:00,74.0,44.0,-100.00,ESE,110,7.0,12.0,34,0.00,,,0.00,,2013-08-08 02:02:00,
2013-08-07 18:11:00,74.0,44.0,-100.00,ESE,110,7.0,12.0,34,0.00,,,0.00,,2013-08-08 02:11:00,
2013-08-07 18:22:00,74.0,44.0,-100.00,ESE,110,7.0,12.0,34,0.00,,,0.00,,2013-08-08 02:22:00,
2013-08-07 18:32:00,73.0,44.0,-100.00,ESE,115,4.0,15.0,35,0.00,,,0.00,,2013-08-08 02:32:00,
2013-08-07 18:42:00,73.0,44.0,-100.00,ESE,115,4.0,15.0,35,0.00,,,0.00,,2013-08-08 02:42:00,
2013-08-07 18:52:00,72.0,43.0,-100.00,SE,130,6.0,12.0,36,0.00,,,0.00,,2013-08-08 02:52:00,
2013-08-07 19:01:00,72.0,43.0,-100.00,SE,130,6.0,12.0,36,0.00,,,0.00,,2013-08-08 03:01:00,
2013-08-07 19:12:00,72.0,43.0,-100.00,SE,130,6.0,12.0,36,0.00,,,0.00,,2013-08-08 03:12:00,
2013-08-07 19:32:00,71.0,43.0,-100.00,SE,130,7.0,15.0,36,0.00,,,0.00,,2013-08-08 03:32:00,
2013-08-07 19:43:00,71.0,43.0,-100.00,SE,130,7.0,15.0,36,0.00,,,0.00,,2013-08-08 03:43:00,
2013-08-07 19:52:00,69.0,45.0,-100.00,ESE,110,6.0,13.0,41,0.00,,,0.00,,2013-08-08 03:52:00,
2013-08-07 20:01:00,69.0,45.0,-100.00,ESE,110,6.0,13.0,41,0.00,,,0.00,,2013-08-08 04:01:00,
2013-08-07 20:11:00,69.0,45.0,-100.00,ESE,110,6.0,13.0,41,0.00,,,0.00,,2013-08-08 04:11:00,
2013-08-07 20:33:00,68.0,45.0,-100.00,ESE,110,6.0,12.0,43,0.00,,,0.00,,2013-08-08 04:33:00,
2013-08-07 20:43:00,68.0,45.0,-100.00,ESE,110,6.0,12.0,43,0.00,,,0.00,,2013-08-08 04:43:00,
2013-08-07 20:53:00,67.0,45.0,-100.00,SE,135,6.0,13.0,46,0.00,,,0.00,,2013-08-08 04:53:00,
2013-08-07 21:02:00,67.0,45.0,-100.00,SE,135,6.0,13.0,46,0.00,,,0.00,,2013-08-08 05:02:00,
2013-08-07 21:11:00,67.0,45.0,-100.00,SE,135,6.0,13.0,46,0.00,,,0.00,,2013-08-08 05:11:00,
2013-08-07 21:33:00,68.0,45.0,-100.00,ESE,120,9.0,15.0,44,0.00,,,0.00,,2013-08-08 05:33:00,
2013-08-07 21:43:00,68.0,45.0,-100.00,ESE,120,9.0,15.0,44,0.00,,,0.00,,2013-08-08 05:43:00,
2013-08-07 22:01:00,68.0,44.0,-100.00,ESE,110,9.0,16.0,42,0.00,,,0.00,,2013-08-08 06:01:00,
2013-08-07 22:11:00,68.0,44.0,-100.00,ESE,110,9.0,16.0,42,0.00,,,0.00,,2013-08-08 06:11:00,
2013-08-07 22:21:00,68.0,44.0,-100.00,ESE,110,9.0,16.0,42,0.00,,,0.00,,2013-08-08 06:21:00,
2013-08-07 22:32:00,67.0,44.0,-100.00,SE,130,5.0,11.0,43,0.00,,,0.00,,2013-08-08 06:32:00,
2013-08-07 22:43:00,67.0,44.0,-100.00,SE,130,5.0,11.0,43,0.00,,,0.00,,2013-08-08 06:43:00,
2013-08-07 23:01:00,67.0,42.0,-100.00,ESE,120,6.0,9.0,41,0.00,,,0.00,,2013-08-08 07:01:00,
2013-08-07 23:12:00,67.0,42.0,-100.00,ESE,120,6.0,9.0,41,0.00,,,0.00,,2013-08-08 07:12:00,
2013-08-07 23:22:00,67.0,42.0,-100.00,ESE,120,6.0,9.0,41,0.00,,,0.00,,2013-08-08 07:22:00,
2013-08-07 23:43:00,67.0,43.0,-100.00,East,95,5.0,9.0,42,0.00,,,0.00,,2013-08-08 07:43:00,